Overview Statistics Trail Chart Weather Telemetry Raw packets
 

This is the latest recevied weather packets stored in our database for station/object WW5JC. If no packets are shown the sender has not sent any weather packets the latest 10 day(s).

<< 59 60 61 62 63 64 65 >>
Time Temp. Humidity Pressure Rain* Wind** Luminosity Snow
1788220146 35.56° C 41% 1016 hPa 0 mm - 54 W/m² -
1788219841 35.56° C 41% 1015.8 hPa 0 mm - 67 W/m² -
1788219536 36.11° C 39% 1015.9 hPa 0 mm - 74 W/m² -
1788219231 36.11° C 40% 1015.8 hPa 0 mm - 85 W/m² -
1788218927 36.11° C 41% 1016 hPa 0 mm - 95 W/m² -
1788218623 36.11° C 41% 1015.9 hPa 0 mm - 105 W/m² -
1788218318 36.11° C 42% 1015.9 hPa 0 mm - 115 W/m² -
1788218015 35.56° C 42% 1016 hPa 0 mm - 90 W/m² -
1788217709 35.56° C 41% 1016.1 hPa 0 mm - 85 W/m² -
1788217399 36.11° C 41% 1015.9 hPa 0 mm - 91 W/m² -
1788217098 36.67° C 41% 1015.9 hPa 0 mm - 111 W/m² -
1788216793 36.67° C 40% 1016 hPa 0 mm - 196 W/m² -
1788216489 36.67° C 40% 1015.9 hPa 0 mm - 211 W/m² -
1788216184 37.22° C 39% 1015.9 hPa 0 mm - 226 W/m² -
1788215878 37.22° C 38% 1015.9 hPa 0 mm - 231 W/m² -
1788215575 37.22° C 37% 1016 hPa 0 mm - 237 W/m² -
1788215271 37.22° C 38% 1016 hPa 0 mm - 240 W/m² -
1788214967 37.22° C 37% 1016.1 hPa 0 mm - 255 W/m² -
1788214662 37.78° C 37% 1016.1 hPa 0 mm - 261 W/m² -
1788214357 37.22° C 37% 1016 hPa 0 mm - 268 W/m² -
1788214057 37.78° C 36% 1015.9 hPa 0 mm - 281 W/m² -
1788213752 37.22° C 37% 1016.1 hPa 0 mm - 289 W/m² -
1788213446 37.78° C 37% 1016.2 hPa 0 mm - 316 W/m² -
1788213143 37.22° C 37% 1016.3 hPa 0 mm - 333 W/m² -
1788212839 37.78° C 38% 1016.4 hPa 0 mm - 350 W/m² -

* Rain latest hour (hover to see other rain measurements)
** Current wind speed in m/s (hover to see current wind gust speed)